Theta_e
294 294 294 293 294 293 293 292 293 292 293 292 292 292 291 292 293 293 293 294 294 294 295 295 296 296 297 297 297 298 298 298 298 298 298 298 299 301 308 311 311 311 312 314 316 318 319 320 321 322 323 324 325 326 326 325 325 327 330 336 337 340 342 342 342 343 344 345 346 346 346 346 345 345 346 344 343 344 343 345 345 344 344 345 344
293 293 293 293 292 292 292 292 291 291 291 291 291 291 291 291 292 293 293 293 293 294 295 294 295 295 295 296 296 297 297 297 297 297 298 298 298 299 305 308 310 310 311 312 315 317 318 319 320 321 322 323 324 325 326 327 327 324 326 329 334 337 340 342 342 342 343 344 345 346 346 345 344 344 345 345 344 343 344 344 345 345 344 344 343
293 292 292 292 292 292 291 291 291 291 291 291 291 292 291 291 292 292 293 292 293 293 293 293 294 294 295 295 295 296 296 296 296 297 297 297 297 298 301 306 308 310 311 311 312 314 316 318 319 320 321 321 322 323 324 326 327 327 325 325 328 332 336 339 341 341 342 343 344 344 345 345 344 344 345 345 344 342 342 342 344 343 343 343 342
293 293 292 292 291 291 291 291 290 290 290 291 291 291 291 292 292 293 293 292 292 292 293 293 292 292 293 293 294 294 294 295 295 296 297 297 297 297 298 300 304 308 310 310 311 312 313 315 316 317 318 319 321 322 323 324 326 327 327 326 326 328 330 335 339 340 341 342 343 343 343 343 343 343 344 344 344 342 342 340 342 343 342 342 341
293 292 292 291 291 291 290 291 290 290 290 291 291 291 290 290 291 292 291 291 291 292 293 292 291 292 292 292 293 293 293 294 294 294 295 295 296 296 297 298 298 304 306 309 310 310 311 312 314 316 317 318 319 321 322 322 323 325 327 327 328 329 328 329 335 339 340 340 343 342 341 342 342 343 343 343 343 342 342 343 342 342 342 342 342
292 292 291 290 290 290 290 290 290 290 290 290 289 289 289 289 290 289 291 291 290 290 290 290 290 291 291 292 293 292 292 292 292 293 294 295 295 296 296 296 297 298 300 306 308 310 310 310 311 312 313 314 316 317 319 320 320 321 324 327 328 329 329 328 329 333 337 339 340 342 341 341 342 343 343 343 343 342 342 342 340 341 341 342 341
292 291 291 290 289 289 289 289 290 289 288 289 289 289 289 289 289 289 289 289 289 290 290 289 290 290 291 292 291 291 292 292 292 293 293 294 295 295 296 295 296 297 299 298 301 304 307 309 310 311 312 313 315 316 317 318 319 319 320 322 324 327 329 330 329 329 331 335 339 340 340 341 341 342 343 342 342 341 342 341 340 340 341 341 341
291 291 290 289 289 288 288 290 289 288 289 288 289 288 288 290 289 289 288 288 289 288 289 289 289 289 290 290 291 292 291 291 292 293 294 294 294 294 295 295 296 296 300 298 298 300 305 308 311 310 310 311 312 313 315 317 318 318 319 320 321 323 325 327 329 330 329 331 336 337 338 339 340 341 340 341 342 342 341 341 340 341 341 341 340
291 291 289 289 289 288 289 289 289 288 288 288 287 289 288 289 288 289 288 287 288 288 288 288 288 289 289 290 291 291 291 291 292 293 295 294 294 294 295 296 297 300 297 297 298 299 302 306 308 310 310 311 311 312 313 316 317 318 319 320 321 322 323 324 325 328 329 330 332 335 336 338 339 339 340 340 339 341 342 341 341 340 340 341 340
290 290 289 289 288 288 288 289 288 288 287 287 287 288 287 288 288 288 289 288 287 287 287 288 289 289 290 290 290 290 290 291 292 294 293 293 293 294 295 296 296 297 297 298 298 298 299 302 306 307 306 309 310 311 312 313 314 316 318 319 320 321 322 322 324 325 326 328 330 333 335 336 338 339 340 339 338 338 341 342 341 341 341 341 340
290 290 288 288 287 288 287 288 287 287 287 286 286 287 288 287 287 287 288 288 287 287 287 288 289 289 289 289 289 289 290 291 292 292 293 293 294 296 297 296 297 297 297 298 298 298 298 299 299 299 300 306 310 310 311 312 312 313 315 316 317 318 318 319 320 322 324 326 327 329 332 335 337 338 339 339 339 338 338 340 342 341 341 341 340
289 289 288 287 287 287 287 288 287 287 286 286 286 285 286 286 286 287 286 287 288 287 287 287 288 287 288 288 289 290 290 290 290 290 291 291 292 293 294 295 296 297 298 298 298 298 299 299 298 299 300 303 307 309 310 311 312 313 314 316 317 318 318 319 319 320 321 322 324 326 328 330 335 337 337 338 338 338 338 338 341 341 341 341 339
289 288 288 289 287 286 286 287 287 286 286 286 286 286 287 287 286 286 286 285 286 287 287 287 286 285 287 287 287 288 289 289 289 290 290 291 292 292 294 295 295 294 296 297 298 298 299 299 298 299 298 299 301 305 308 310 310 312 311 312 315 319 320 320 321 321 322 323 323 323 325 328 329 333 337 339 338 338 338 337 337 339 342 342 341
288 287 287 287 286 286 286 286 286 286 286 287 286 288 286 285 286 284 286 286 285 286 287 286 284 283 283 283 284 285 287 289 289 288 289 290 289 288 288 288 289 290 291 292 294 295 296 297 298 298 298 299 299 299 299 300 301 306 308 310 311 314 315 316 316 316 317 319 321 324 325 326 327 328 332 339 339 339 339 338 338 337 338 341 342
288 288 287 287 286 285 285 285 286 286 285 285 285 285 285 285 285 285 284 285 285 287 286 286 283 284 284 283 280 280 284 285 287 287 287 288 288 288 288 288 290 291 291 290 290 291 293 294 295 297 297 296 296 297 297 299 299 301 306 309 310 312 313 315 315 316 316 315 317 319 321 324 327 328 329 335 338 339 339 339 339 338 337 337 341
288 287 287 286 285 285 285 285 285 286 286 285 284 284 284 284 285 285 285 283 283 283 286 286 285 284 279 280 280 280 278 281 282 285 287 287 287 287 288 290 289 288 289 289 290 291 293 294 295 294 294 294 295 295 297 298 299 298 298 301 303 309 310 312 313 314 316 318 322 323 323 324 325 327 330 330 337 339 339 339 340 339 339 338 338
287 287 286 286 286 285 285 284 285 285 285 285 284 284 284 284 285 285 284 283 282 283 284 285 285 286 284 281 278 278 277 280 283 283 285 285 286 287 287 287 287 288 290 290 291 292 292 293 293 294 294 294 295 295 296 296 297 298 298 297 299 304 308 310 312 313 316 317 318 317 318 318 319 323 328 331 331 336 340 340 340 340 339 338 337
286 286 286 286 285 285 284 284 284 285 285 285 284 284 284 284 284 284 284 284 283 282 282 284 285 286 286 285 283 279 279 282 281 278 284 285 285 285 286 287 287 288 289 289 290 291 292 293 293 293 293 293 294 295 295 295 296 296 297 297 302 305 306 307 310 313 314 315 315 316 317 316 318 319 320 329 332 333 336 339 339 339 339 339 337
286 285 285 285 285 284 284 284 284 284 285 284 283 283 284 283 285 284 284 286 284 281 281 281 283 284 285 286 286 286 285 282 279 281 278 282 283 284 285 286 287 287 288 289 289 289 290 290 290 291 292 293 293 293 293 293 294 294 296 297 302 304 306 307 309 310 311 312 313 313 315 317 317 319 320 323 328 332 334 336 338 339 339 339 338
286 285 285 285 285 284 284 284 284 283 284 283 283 283 284 285 284 284 284 283 282 281 281 281 280 281 284 283 283 284 283 283 283 281 280 278 280 283 285 284 285 285 287 287 287 288 288 289 290 290 290 290 290 291 291 291 292 293 294 298 301 303 305 306 307 308 307 308 311 312 314 316 318 318 318 319 321 322 329 333 336 338 339 339 338
285 285 284 285 285 283 283 283 283 283 283 284 283 283 283 282 282 282 282 283 282 283 282 281 281 281 281 280 281 281 281 282 282 282 279 278 278 279 281 283 284 284 285 286 286 286 287 287 287 288 289 289 290 291 291 291 292 292 294 296 299 301 301 301 303 305 306 307 307 309 312 315 316 315 315 315 318 320 321 327 332 336 336 335 338
284 284 284 284 283 283 283 282 282 282 283 282 282 282 282 282 282 282 282 282 283 282 282 282 282 282 281 281 279 279 279 279 279 279 280 280 278 278 280 279 278 281 283 283 284 285 286 286 286 287 288 289 290 290 290 290 290 291 293 296 298 301 301 301 302 303 305 306 307 307 308 310 311 314 315 315 318 320 321 321 326 331 334 335 334
284 284 284 284 283 283 282 282 282 282 282 281 281 281 281 281 282 282 282 282 281 282 283 283 282 281 281 280 279 279 278 277 278 278 278 277 277 278 279 280 279 279 281 283 284 284 285 285 286 286 287 288 288 289 289 290 291 292 294 297 299 300 301 301 302 302 304 305 306 307 308 307 309 309 313 317 318 319 319 320 321 323 329 333 336
283 282 282 283 283 282 282 282 281 281 281 281 281 281 282 281 281 281 280 281 281 281 280 280 280 280 280 280 280 280 280 279 279 280 279 278 278 277 278 279 279 279 281 282 283 283 283 284 285 286 286 287 288 288 289 289 290 292 292 294 297 299 299 300 301 303 305 305 305 307 307 307 307 309 311 312 314 316 318 318 318 320 322 327 332
281 281 281 282 282 281 281 280 280 281 281 281 281 281 280 280 280 280 280 279 280 280 279 279 279 278 278 279 279 279 279 280 280 279 280 280 278 277 278 279 277 277 279 280 279 281 283 283 284 285 285 286 287 288 288 289 290 291 293 293 296 298 299 300 301 302 303 304 304 306 306 307 308 309 309 309 311 313 315 316 316 317 320 323 328
281 281 282 282 281 281 281 280 280 279 280 279 279 280 280 279 279 279 279 279 279 279 278 279 279 279 279 278 278 279 279 280 280 279 278 278 277 276 276 277 277 276 278 278 279 279 280 282 284 285 285 285 286 287 287 287 288 290 291 291 292 295 297 298 299 300 301 302 303 305 305 305 307 307 307 308 309 310 313 313 314 316 318 320 323
281 281 282 281 280 280 280 279 279 279 279 279 281 279 279 280 280 279 279 279 278 279 278 278 279 278 278 278 278 278 278 279 279 279 279 278 278 277 276 274 275 276 275 277 278 278 278 280 283 283 284 285 285 286 286 287 288 291 291 290 291 293 296 298 299 300 301 302 302 303 304 304 304 306 307 306 307 307 309 313 313 314 315 317 321
281 281 281 280 280 279 279 279 279 279 279 279 278 278 278 277 277 278 277 280 278 277 278 278 278 278 278 279 278 278 278 278 279 279 279 279 278 278 277 276 274 272 275 274 276 276 280 278 281 282 283 284 284 285 286 286 286 289 288 287 289 291 295 296 298 299 299 300 301 302 303 304 304 305 305 305 306 306 306 308 309 308 309 311 314
280 280 279 279 279 279 278 278 279 278 278 278 277 277 277 277 277 276 276 276 277 277 277 277 278 278 278 278 278 278 278 278 278 279 278 278 278 278 278 276 276 274 272 272 274 275 277 279 277 280 283 283 283 284 284 284 285 286 285 286 287 289 292 294 295 296 297 297 297 298 298 300 301 303 305 305 306 306 307 307 307 307 308 309 311
280 280 279 278 278 279 277 277 277 277 277 277 277 276 276 276 276 276 276 276 276 276 277 277 277 277 278 278 278 278 278 278 278 278 278 278 278 278 278 278 278 275 275 273 273 277 276 279 279 279 281 281 282 282 282 282 284 284 283 284 286 287 290 291 292 294 295 296 297 297 298 298 299 301 301 303 306 307 308 309 309 309 310 310 311
279 278 278 277 277 277 277 276 277 277 276 276 276 276 276 275 275 276 275 275 275 275 276 276 277 277 276 276 277 277 277 277 277 278 278 278 278 278 278 278 278 278 276 275 273 275 279 276 279 280 280 280 280 280 281 281 283 283 284 285 285 286 287 287 288 291 292 294 295 296 298 298 300 301 301 302 304 305 306 307 307 307 308 310 311
277 277 277 276 276 276 276 276 276 276 275 275 275 275 275 275 275 275 275 274 274 274 274 275 276 276 275 275 276 276 277 277 277 277 277 278 278 278 278 278 278 278 277 276 274 273 277 277 278 279 280 279 279 279 280 281 284 285 283 283 283 285 283 283 286 287 289 291 292 293 294 296 298 299 301 301 302 303 305 306 306 306 306 307 310
276 276 276 276 276 276 275 276 275 274 274 274 274 274 274 274 274 273 273 273 273 274 274 274 274 274 274 274 274 275 275 275 275 275 276 276 276 276 277 276 276 276 276 275 273 273 276 279 278 278 279 278 277 278 278 280 280 281 282 281 281 281 281 281 282 284 286 288 289 291 292 293 296 298 299 300 301 302 303 305 304 304 306 307 309
276 275 275 275 275 275 274 274 274 274 274 274 273 273 273 273 273 274 273 272 272 272 272 272 272 273 273 273 273 273 273 273 273 273 273 273 273 273 273 274 274 275 276 274 273 273 272 275 275 277 276 277 275 277 277 277 278 280 279 279 280 279 279 280 280 280 284 286 288 289 291 292 293 294 296 298 301 301 302 304 304 304 306 307 308
275 275 275 275 274 274 274 274 274 273 273 273 273 273 273 272 272 271 272 271 271 271 271 271 271 271 271 271 271 271 271 271 271 271 272 271 272 271 271 272 272 272 272 272 270 269 270 270 273 273 274 275 275 275 276 276 277 278 277 277 277 278 279 279 279 280 284 286 288 289 290 291 292 293 294 295 300 301 301 300 304 304 305 307 309
275 275 275 274 274 274 274 273 273 273 273 273 272 272 272 271 271 271 270 270 270 270 270 270 270 270 269 269 269 270 270 269 269 270 270 270 270 270 270 271 271 270 271 271 271 270 270 269 271 272 273 273 274 275 276 277 277 276 276 276 277 277 277 278 278 278 281 285 286 288 289 291 292 293 294 295 299 298 301 302 302 303 305 306 307
275 274 274 274 274 274 273 273 273 272 272 272 272 271 271 270 270 270 270 270 270 270 269 269 271 270 269 269 269 269 269 268 268 269 269 269 269 269 269 270 270 270 270 270 270 270 269 269 270 272 273 272 274 274 275 274 275 275 276 275 276 276 277 278 279 281 284 287 288 289 290 292 293 294 295 297 298 298 301 301 302 302 303 304 304
274 274 274 274 274 273 273 272 272 271 271 270 270 269 269 269 269 269 269 269 269 269 269 269 269 269 269 268 269 269 268 268 268 268 268 268 269 269 269 269 270 270 270 270 270 270 269 269 269 269 271 271 271 272 274 275 275 274 274 275 276 276 277 277 279 282 284 285 286 288 290 292 293 294 296 296 298 299 300 301 300 300 301 301 302
274 273 273 273 272 272 271 271 271 271 270 270 269 269 269 269 269 269 269 269 269 269 269 269 269 269 269 269 269 269 269 269 268 268 269 269 269 269 270 270 270 270 270 270 270 269 269 268 269 270 270 271 272 270 273 275 274 274 273 273 273 276 278 278 279 281 283 284 286 289 289 290 292 293 295 297 298 299 300 300 300 300 300 300 301
273 273 272 272 271 271 271 271 271 271 270 270 269 269 269 269 268 268 268 268 269 269 269 270 270 271 271 271 270 270 270 270 270 270 270 270 270 270 270 270 270 270 269 270 270 269 269 269 269 269 270 270 271 272 274 274 273 273 274 274 273 274 275 277 278 279 281 283 284 285 288 289 291 294 296 298 299 299 299 299 300 300 299 300 301
273 272 272 272 271 271 271 271 271 271 270 270 270 269 269 269 268 268 268 269 269 270 270 271 271 272 272 272 272 272 272 274 275 276 276 276 273 272 272 271 269 269 269 269 269 269 269 269 269 270 270 270 270 271 271 271 271 271 273 274 273 273 274 276 278 281 282 282 284 286 286 288 291 293 295 295 297 297 297 297 297 297 298 300 301
271 271 271 271 270 270 270 270 270 270 270 270 271 273 273 269 269 269 270 270 270 271 271 271 272 272 272 272 273 275 276 276 276 277 277 278 278 276 274 274 273 273 271 270 269 270 269 268 268 269 268 269 270 271 271 271 272 273 273 273 272 273 275 275 277 280 284 284 283 284 287 289 289 289 290 290 292 294 295 298 299 300 299 301 301
269 270 270 269 269 269 269 269 269 270 270 270 273 274 275 276 274 272 272 272 272 272 272 272 272 272 272 273 273 274 274 275 274 276 277 277 278 278 278 278 278 274 272 272 272 272 270 270 270 270 270 269 270 271 271 272 273 273 273 273 273 274 273 273 273 277 281 284 282 280 281 285 288 287 288 289 291 292 293 296 299 300 301 302 302
269 269 268 268 269 269 269 269 269 270 270 272 274 275 276 276 276 274 273 273 273 273 273 272 272 272 272 272 273 273 272 273 273 273 275 277 278 278 278 278 278 279 278 275 273 272 272 271 271 271 271 271 271 272 272 273 272 273 274 274 274 274 274 274 274 274 278 281 280 280 280 283 284 284 285 288 290 291 293 295 298 299 301 303 303
268 267 268 268 268 269 269 269 269 269 269 272 274 275 275 276 276 276 274 274 273 273 273 273 272 272 272 272 272 272 272 275 274 274 273 273 276 277 278 278 278 278 279 279 279 275 273 272 271 271 272 273 273 273 274 274 275 274 275 275 275 276 275 275 275 276 278 281 280 277 277 279 281 282 284 287 289 291 292 295 297 299 300 301 302
267 267 268 268 268 269 269 269 269 269 269 271 273 274 275 276 276 276 274 274 274 273 273 272 271 271 271 271 271 271 273 273 273 273 274 273 273 274 274 274 273 275 277 278 278 278 277 274 272 271 272 273 272 274 276 277 276 274 275 274 275 275 275 275 276 277 278 280 277 277 276 278 280 282 283 287 290 291 291 293 295 297 298 299 300
267 267 267 267 268 268 269 269 268 268 268 271 273 274 275 276 276 276 274 274 273 272 272 272 272 272 272 272 272 272 273 273 273 274 274 274 275 275 274 274 274 274 274 273 273 273 273 273 273 273 273 274 274 274 275 276 276 276 276 275 275 275 275 276 276 277 277 279 278 277 274 278 282 283 285 287 288 289 290 292 294 295 297 298 299
268 268 268 268 268 268 268 267 267 267 267 271 272 274 274 275 276 274 273 272 272 271 271 272 272 272 273 273 272 272 273 273 276 278 278 277 275 274 273 273 273 274 274 276 278 278 276 275 275 275 275 276 278 277 277 277 277 277 277 277 276 275 274 273 272 275 276 279 281 281 279 281 284 284 285 287 287 287 289 289 293 295 297 297 298
267 267 267 268 268 267 267 267 266 266 266 269 271 273 274 275 275 273 272 272 272 271 271 272 272 272 273 273 273 274 274 274 277 279 279 278 275 273 273 272 272 272 272 274 277 279 279 280 280 281 281 282 282 282 282 283 280 279 277 275 274 275 273 272 273 274 275 278 280 281 281 281 284 285 285 286 286 287 288 289 290 294 296 297 298
267 267 267 267 267 267 267 266 267 266 266 268 271 272 274 274 274 273 272 272 271 271 271 272 272 273 274 276 276 275 274 274 277 278 279 277 274 273 273 272 271 271 272 274 274 275 278 279 280 280 280 281 281 282 282 282 282 281 277 274 276 276 274 274 273 275 276 278 279 281 279 279 282 285 284 286 286 287 288 288 290 291 294 296 298
267 267 267 266 266 267 267 267 268 267 266 268 271 272 273 274 274 273 272 271 271 271 271 272 273 273 274 275 276 276 275 275 277 278 278 277 274 273 273 272 271 271 272 273 273 273 273 274 274 274 275 277 277 276 277 280 281 281 279 278 278 276 274 275 275 275 274 276 279 282 278 279 281 283 284 283 282 285 287 287 288 290 291 291 293
Wind_Speed
2 2 3 3 4 4 4 4 4 6 6 6 6 6 6 6 6 6 6 6 6 6 6 6 6 6 7 7 7 7 7 7 7 7 6 7 7 8 12 13 15 17 19 20 21 21 22 21 21 22 22 23 23 23 24 24 24 23 23 22 22 23 21 19 18 16 16 17 18 17 18 19 21 20 19 23 24 24 23 23 24 25 25 22 20
3 2 3 3 4 4 4 5 4 5 6 5 5 5 5 5 5 5 5 6 6 6 6 6 6 6 6 7 7 7 7 7 7 7 7 7 7 8 12 13 14 18 19 19 20 21 21 21 21 21 22 22 23 24 24 25 24 24 24 24 22 22 21 20 19 17 15 16 18 18 18 19 20 20 20 20 23 23 23 25 23 25 26 24 21
3 2 3 3 5 4 3 4 4 4 6 4 3 4 4 5 5 6 5 6 6 6 6 6 6 6 6 6 7 7 7 7 7 7 8 8 7 7 9 13 14 14 16 18 19 20 21 21 21 21 21 22 23 24 24 25 25 25 25 24 24 23 22 20 19 19 16 16 17 19 18 18 19 20 21 22 21 21 23 19 19 23 22 20 22
3 3 1 3 5 3 2 3 3 6 3 3 3 3 4 4 4 4 5 6 6 6 6 6 6 6 6 7 7 7 7 7 7 7 7 7 7 7 7 8 11 14 14 16 18 19 19 19 20 20 21 22 23 23 24 24 25 25 25 25 25 25 23 22 20 19 19 17 16 17 19 18 19 19 20 20 20 20 22 21 24 24 25 25 24
4 3 1 3 4 3 3 2 4 5 3 3 3 3 4 4 5 4 5 6 7 6 5 6 7 7 7 7 7 7 7 7 7 7 8 8 8 7 7 7 6 9 12 12 15 17 18 19 19 19 20 21 22 23 23 24 24 25 26 26 25 25 25 24 21 20 20 20 18 18 19 20 20 19 19 19 20 22 23 23 27 28 25 25 26
4 3 1 4 3 3 4 3 5 3 1 2 2 3 3 4 3 5 5 6 6 6 6 6 6 6 7 7 7 7 7 8 7 8 8 8 8 7 7 6 7 6 6 9 11 11 15 18 19 20 20 21 22 23 23 24 24 25 25 26 26 25 25 25 24 23 22 21 21 18 19 20 21 21 20 20 19 21 22 21 19 22 23 26 24
2 2 2 2 3 3 3 5 4 2 1 2 2 3 3 3 4 5 5 5 5 6 6 6 7 8 7 7 7 7 7 8 8 8 9 9 8 8 7 6 6 6 6 6 6 10 13 16 19 19 19 21 21 22 23 24 26 26 26 26 26 26 26 25 25 25 24 23 21 19 17 19 21 22 22 21 20 19 20 21 21 23 22 27 25
3 1 2 3 3 3 3 4 4 2 2 2 2 3 3 4 3 4 6 5 5 6 6 6 6 8 8 8 8 8 8 8 9 9 9 8 8 8 7 7 6 6 6 6 6 7 11 12 14 16 19 20 21 22 23 24 24 26 26 26 26 26 27 27 26 25 25 23 21 20 18 17 19 20 22 22 21 22 21 23 23 24 25 25 25
3 2 2 3 3 3 3 3 3 2 1 1 2 3 3 4 4 3 3 6 6 7 7 5 7 8 8 9 9 9 9 8 9 9 8 9 9 8 7 7 6 6 6 6 6 6 7 10 11 13 14 16 19 21 22 23 24 24 24 26 26 26 26 26 26 26 24 22 21 20 20 19 19 20 21 24 24 23 24 25 25 27 28 27 30
3 3 3 3 3 3 2 3 3 1 1 1 2 2 3 3 5 3 3 4 6 6 7 7 6 8 8 9 10 9 9 9 9 9 9 9 8 8 8 7 6 6 7 7 7 6 6 8 11 12 13 13 17 20 21 22 23 23 23 24 24 25 26 26 26 25 25 24 22 21 21 20 20 20 21 22 26 27 25 24 26 27 29 30 31
4 3 2 3 3 3 3 2 2 1 1 1 2 3 3 3 3 5 4 4 6 6 7 7 8 8 9 10 10 10 9 9 9 9 9 8 8 8 6 7 7 7 7 7 6 6 6 6 6 5 6 10 14 19 20 21 22 22 23 23 24 25 25 26 27 26 25 25 24 23 22 21 21 20 19 20 22 27 27 25 25 26 27 30 30
4 3 3 3 2 3 3 2 1 1 0 1 2 2 3 4 4 4 6 6 4 6 6 7 7 8 11 10 9 9 10 11 11 11 9 8 8 7 7 7 7 7 7 7 7 6 7 6 5 6 5 7 13 14 16 18 19 21 21 23 24 25 25 24 25 26 26 25 25 25 24 24 22 22 21 21 22 22 27 28 27 27 28 27 28
4 4 4 4 3 3 2 2 2 2 1 2 2 1 2 2 4 3 4 6 6 4 4 4 8 9 6 7 9 9 12 12 13 10 8 8 7 6 6 6 5 7 7 6 6 6 6 6 5 5 6 6 7 10 11 12 13 16 23 25 25 24 23 23 24 23 24 26 26 25 25 25 25 24 22 19 19 22 25 29 32 30 30 29 34
4 4 4 4 3 3 3 2 2 1 1 1 1 1 3 4 3 4 2 3 5 5 7 7 4 5 11 12 9 6 8 9 11 4 4 5 7 8 8 9 9 8 6 6 5 6 7 7 7 7 6 5 4 5 7 10 12 16 22 25 27 28 29 29 28 29 29 27 27 27 26 25 25 26 24 19 21 22 23 26 28 31 33 30 30
4 4 3 4 4 3 3 2 1 1 0 1 1 2 2 3 3 3 5 2 4 4 6 3 5 6 8 9 6 12 4 5 2 5 12 10 11 11 10 8 10 6 6 9 9 9 7 7 9 7 5 5 6 8 9 9 10 14 15 18 21 22 24 26 28 29 29 29 29 28 27 27 25 25 26 26 23 22 23 25 26 28 30 30 26
6 5 4 4 4 4 3 2 1 1 0 1 2 3 3 3 3 3 2 5 3 3 3 5 4 7 7 2 10 6 10 0 8 11 10 11 8 8 5 5 8 11 10 9 7 6 7 6 6 6 8 9 9 9 8 7 11 13 14 14 15 19 27 28 29 29 29 28 27 24 24 25 26 26 26 27 27 25 24 25 26 29 27 26 29
6 5 5 5 4 3 3 2 2 1 0 1 2 4 4 3 3 3 2 3 5 3 3 2 4 4 4 6 5 3 3 11 15 12 6 1 5 8 8 11 10 7 6 7 7 8 7 8 9 8 7 8 8 8 8 8 8 8 11 14 15 16 19 26 27 28 28 29 29 29 28 28 27 27 27 27 29 28 26 25 27 27 29 26 28
6 5 4 4 4 3 3 2 2 2 3 4 3 3 3 3 3 3 4 3 4 4 5 3 4 4 4 5 5 6 11 8 4 11 7 8 12 5 6 4 4 7 7 8 9 8 7 8 5 7 9 11 10 8 7 7 6 8 9 11 17 20 21 25 27 27 27 28 31 32 31 30 28 29 28 28 28 29 29 29 28 28 26 26 28
6 5 5 4 4 4 3 3 2 2 2 3 3 3 3 3 3 3 3 2 1 3 4 5 4 4 5 5 6 6 6 7 7 10 19 10 7 3 4 2 5 6 7 7 7 8 8 8 10 10 10 7 6 8 9 11 14 16 17 18 19 20 20 20 22 24 27 27 27 28 31 32 29 29 28 29 27 27 28 29 29 30 28 26 28
7 6 6 5 5 4 4 3 3 3 3 4 4 3 2 2 2 3 2 2 3 5 5 4 5 4 3 6 6 5 5 5 5 7 11 16 25 4 6 6 7 4 7 10 9 9 10 9 9 10 9 10 11 12 12 12 11 11 11 16 19 21 21 23 23 23 25 28 29 29 28 29 30 29 29 29 30 30 29 28 29 29 29 29 27
7 7 6 6 5 5 4 4 3 3 3 3 3 3 3 3 3 3 3 3 3 3 3 4 3 5 4 3 4 4 5 4 6 7 6 12 19 18 18 6 6 9 10 9 9 10 11 12 12 12 12 12 11 10 10 10 11 12 13 19 20 22 24 26 27 27 26 26 28 29 29 29 30 34 34 33 31 30 30 29 27 29 29 30 31
7 6 6 6 5 5 4 4 3 3 3 3 3 3 4 4 4 4 4 4 3 3 4 5 4 4 3 4 3 3 4 3 4 4 6 6 12 20 18 20 22 14 4 11 13 10 10 11 11 11 11 11 10 11 12 13 13 12 14 20 21 22 25 27 29 29 28 26 26 27 30 31 31 31 34 34 31 29 29 29 29 26 28 28 31
7 6 6 6 5 5 5 4 4 3 3 3 3 3 4 4 5 4 3 4 3 4 5 4 4 4 5 5 5 5 5 5 6 5 6 7 10 15 16 16 17 21 17 7 10 10 11 9 11 11 11 12 11 11 12 13 15 16 23 24 23 23 26 28 29 29 29 29 28 28 28 28 29 30 30 31 31 30 29 29 28 28 27 28 30
7 7 7 6 6 5 4 4 3 3 4 4 3 4 4 3 2 2 2 3 3 3 3 4 5 5 5 5 6 5 5 7 6 6 6 8 9 13 14 15 18 16 12 13 14 9 11 11 10 11 11 11 11 10 12 14 15 21 19 21 22 24 28 29 29 28 28 28 28 27 28 28 27 25 25 29 33 34 32 31 30 29 28 29 28
7 7 7 7 6 6 5 5 4 5 5 4 4 2 1 1 2 3 3 3 4 4 5 6 6 6 6 4 5 5 6 5 6 6 5 6 7 12 14 11 15 19 19 11 12 10 11 9 13 10 10 11 11 11 11 11 11 15 19 17 24 23 27 29 29 29 28 29 29 29 28 27 26 25 27 27 30 34 37 34 33 31 30 30 30
8 8 7 7 6 6 5 5 4 3 2 2 2 2 3 3 3 4 4 4 3 4 5 5 5 6 5 6 6 7 7 7 8 7 8 7 9 10 13 12 12 16 16 16 15 12 10 5 7 8 8 9 11 12 12 14 15 19 20 18 21 26 27 29 31 31 30 31 30 29 28 27 26 26 26 30 30 30 35 39 36 34 32 31 32
8 7 7 7 6 6 5 4 4 4 4 3 3 3 3 3 4 4 5 4 4 5 5 5 6 6 6 6 7 6 7 7 7 7 6 8 8 9 8 14 16 15 16 13 17 18 15 12 10 8 8 10 10 10 12 12 16 20 19 15 14 24 26 27 29 31 31 30 29 28 27 26 26 25 25 27 30 33 33 37 39 37 35 34 32
7 7 6 7 6 6 4 4 4 4 4 3 3 3 3 3 3 4 5 3 3 4 5 4 6 6 7 7 7 8 8 8 7 8 7 7 8 7 8 9 12 19 17 19 17 18 14 12 12 9 7 9 8 8 11 16 15 22 22 16 16 15 18 21 25 26 27 27 27 26 26 26 28 29 27 26 27 29 32 34 38 36 32 30 28
7 7 7 6 6 6 5 5 4 4 3 3 3 3 3 3 3 3 4 3 3 5 4 5 5 6 6 7 8 8 8 7 7 7 7 7 7 8 8 9 9 12 15 17 22 19 20 11 11 13 7 9 11 8 11 11 15 18 17 18 19 16 17 22 25 28 30 32 33 33 32 30 29 27 26 27 27 28 29 30 32 34 32 31 31
7 7 7 7 6 6 5 4 3 3 3 3 3 3 3 3 3 4 3 3 4 4 4 4 7 6 7 8 7 8 7 6 6 6 6 7 8 8 9 9 10 13 14 17 22 17 18 20 13 12 10 7 8 12 10 13 19 23 20 20 17 16 24 29 28 30 32 33 33 33 34 33 31 31 31 27 24 22 25 27 28 31 35 34 34
8 8 7 7 6 5 5 4 4 5 4 4 3 3 3 3 3 4 3 3 4 5 4 5 6 5 7 8 8 9 8 8 8 8 7 8 9 9 9 10 11 13 14 15 20 22 15 18 22 13 13 13 11 13 14 13 17 22 18 13 14 20 29 25 30 30 31 32 31 30 30 30 31 31 30 28 28 29 29 28 28 29 32 35 36
7 7 7 6 6 6 5 6 5 5 4 3 3 3 3 3 3 4 3 3 3 4 4 4 5 6 7 9 8 8 8 7 8 7 7 8 9 9 9 10 12 12 12 16 21 26 19 20 22 22 17 16 14 13 14 16 12 16 15 17 20 25 21 19 28 33 32 34 35 34 33 32 31 32 30 30 30 31 30 31 32 32 32 33 35
8 8 7 7 6 7 6 5 5 4 4 3 3 3 3 3 3 3 3 3 4 5 5 7 6 7 7 9 9 9 8 9 8 8 8 8 9 9 9 10 12 13 14 17 19 22 20 17 19 19 17 15 18 14 13 14 16 14 15 16 17 15 15 16 17 28 35 36 37 37 37 35 33 32 33 32 32 31 32 32 34 33 31 32 33
8 8 7 6 6 6 5 5 5 4 4 4 3 3 3 3 3 3 4 3 4 5 5 7 6 5 7 9 10 9 7 8 8 9 8 8 8 10 11 13 14 13 10 11 13 15 20 16 17 18 20 16 19 18 16 14 16 15 16 15 14 15 16 17 17 19 33 34 36 36 36 37 36 36 36 33 30 29 32 34 34 33 31 30 32
7 7 7 7 6 6 5 5 4 4 4 4 3 3 3 3 4 3 3 3 4 5 6 7 7 6 8 9 10 8 7 9 9 9 9 10 9 11 13 11 13 13 13 13 14 18 20 20 21 22 20 16 16 19 18 18 19 18 18 17 15 15 14 17 18 17 28 35 36 36 39 38 38 39 38 39 33 27 28 32 37 33 30 29 30
8 7 6 6 6 5 5 5 4 4 4 3 3 3 3 3 3 4 3 3 4 5 6 7 6 7 8 9 9 8 8 10 10 9 9 9 10 10 12 12 12 15 13 14 14 16 17 20 18 18 19 17 18 18 18 16 15 14 14 17 15 16 17 16 19 19 23 35 37 38 37 36 37 36 36 38 34 31 28 27 33 36 29 27 27
7 7 5 5 5 5 6 5 4 4 4 4 3 3 2 2 3 3 4 4 4 5 6 7 7 8 8 9 9 8 8 10 10 10 10 11 11 11 12 12 11 15 14 14 15 15 17 20 20 17 19 19 17 18 17 17 18 15 13 15 15 16 17 17 16 18 27 35 36 37 36 35 35 34 37 37 37 33 29 27 30 36 32 28 27
6 6 6 5 6 5 4 4 4 3 3 3 3 3 3 3 3 3 4 4 5 6 6 7 7 8 9 9 9 9 9 10 11 11 11 13 12 13 14 14 14 13 14 14 17 16 19 19 19 19 17 18 17 17 15 15 15 15 14 15 16 16 16 17 17 15 13 13 12 14 20 25 29 35 38 37 36 34 31 27 31 37 35 29 28
8 7 5 5 4 5 3 3 3 3 3 3 3 3 3 3 4 4 4 5 6 6 6 7 8 9 9 9 10 10 11 12 12 12 12 14 13 15 15 15 15 14 17 14 15 17 15 19 16 18 19 17 16 18 14 14 16 15 18 17 19 15 12 13 15 13 12 14 19 27 26 25 30 27 26 29 29 30 30 31 34 38 36 31 28
8 7 6 6 3 3 3 2 2 2 3 3 3 4 4 4 4 4 4 5 6 6 7 9 10 11 12 12 12 12 12 12 12 13 13 13 13 17 15 15 14 17 14 16 13 15 15 14 20 15 16 17 15 15 14 14 16 15 11 13 18 18 16 15 17 16 17 15 16 17 20 24 27 32 35 29 29 28 29 28 31 35 35 31 29
6 6 6 5 5 3 3 3 3 3 3 4 4 4 4 5 4 4 5 6 7 9 10 11 11 12 12 12 13 12 13 18 23 22 21 20 13 12 10 10 12 14 14 14 14 12 15 14 16 15 17 18 17 15 16 16 14 16 15 12 16 17 15 15 17 13 14 16 15 14 18 20 18 16 13 11 12 17 21 27 27 33 33 31 30
7 6 6 4 4 4 4 5 5 5 5 5 7 13 10 6 4 4 5 7 9 9 10 12 13 13 13 12 12 20 21 22 23 24 25 26 27 21 17 14 14 13 12 13 14 13 14 15 16 14 16 16 16 16 16 17 16 16 17 16 17 17 13 15 17 15 8 9 13 16 11 9 11 9 8 9 10 13 12 13 13 16 22 28 29
7 7 6 6 5 5 5 5 6 6 6 5 11 12 12 12 8 6 7 7 8 10 10 10 10 12 12 13 12 14 17 19 19 25 25 26 27 29 30 29 25 19 16 16 16 13 13 15 14 14 17 18 18 17 18 17 17 17 18 16 16 16 15 15 18 18 10 5 12 15 19 13 9 11 10 10 11 11 11 12 17 19 23 25 26
6 5 6 6 6 6 5 6 6 6 5 8 12 12 12 12 11 7 7 7 7 8 10 10 12 11 13 13 12 10 11 14 15 15 20 27 29 30 31 31 30 31 28 21 18 16 16 16 17 16 16 17 17 14 16 15 17 17 17 15 17 15 14 14 16 17 17 8 12 13 17 19 12 13 15 14 12 12 13 16 20 20 20 23 27
6 6 6 7 6 6 6 6 6 6 6 9 12 12 12 12 13 11 7 7 8 7 9 11 12 12 12 12 13 12 11 23 19 16 17 18 23 30 32 33 32 33 32 34 33 25 18 19 19 20 17 17 19 15 12 14 14 17 14 14 14 13 15 19 17 16 19 5 10 15 18 22 15 14 15 16 14 12 13 16 20 20 20 20 23
7 7 6 6 5 6 6 6 5 5 6 8 12 12 11 12 13 12 7 8 7 6 9 11 11 12 13 12 12 13 13 12 13 15 17 18 17 17 16 14 13 20 28 31 33 35 31 22 20 22 20 17 20 19 17 17 19 16 13 14 11 12 14 16 19 17 19 9 11 13 18 22 16 13 15 16 12 10 10 17 21 21 22 23 22
9 8 8 8 7 6 5 5 4 5 5 10 11 12 12 12 13 12 6 5 7 8 9 12 12 12 13 14 15 15 16 15 14 18 18 16 16 15 16 17 15 11 11 13 15 17 18 18 21 23 23 20 19 18 16 14 16 14 12 16 15 14 16 16 16 15 18 13 13 13 17 18 14 13 14 13 11 11 11 16 22 22 22 22 22
7 6 6 7 7 7 6 4 4 6 6 11 12 11 12 11 13 7 5 7 7 8 9 11 11 12 14 14 15 17 17 14 19 26 22 19 18 19 19 18 17 15 14 16 25 26 23 20 19 20 19 21 26 23 21 18 15 15 16 15 14 11 12 16 16 14 14 13 10 13 14 17 14 12 13 11 9 11 12 11 19 21 20 21 22
8 8 8 7 7 6 6 6 6 7 6 9 11 11 10 11 9 5 6 6 7 8 9 10 10 11 12 14 15 14 16 15 20 26 28 26 17 18 19 20 19 18 16 15 23 32 34 36 37 39 40 40 38 38 38 39 30 23 16 16 19 13 14 17 15 14 17 11 9 10 14 18 14 12 13 11 10 12 13 13 11 16 19 20 21
9 8 7 5 5 5 7 7 7 6 5 8 11 11 10 11 9 6 5 6 8 8 9 9 10 10 13 21 20 16 15 16 24 28 28 23 17 17 18 19 21 20 17 15 14 17 29 34 36 37 37 37 37 38 38 37 37 28 19 22 17 12 17 15 14 13 13 13 11 6 13 18 16 13 12 12 12 11 12 11 12 10 12 13 18
7 7 6 6 6 5 6 6 9 9 6 8 12 11 10 9 8 5 6 6 8 8 9 10 9 9 9 11 19 19 18 21 28 26 29 25 17 16 16 17 18 19 16 16 16 18 17 16 18 19 22 27 24 21 21 31 33 28 19 18 15 16 18 16 15 13 16 17 10 7 14 16 14 16 13 13 14 11 8 10 8 6 8 9 10
Wind_Direction
74 81 89 76 79 60 48 44 28 38 33 13 17 5 351 342 335 339 335 329 328 321 318 321 320 325 328 320 316 316 316 313 310 308 306 304 301 295 297 296 298 303 304 305 305 303 302 301 299 298 297 295 293 290 287 284 281 278 276 275 275 277 277 274 269 261 248 246 240 230 227 228 228 226 227 225 227 224 219 217 212 210 201 194 188
93 59 92 80 85 58 52 46 33 42 38 19 12 6 340 330 326 323 320 317 315 305 309 313 318 320 319 312 311 308 307 305 303 303 300 299 297 294 296 300 299 301 302 302 303 304 303 302 301 300 299 298 297 295 292 288 284 280 277 275 273 273 279 280 273 264 254 246 247 236 226 224 226 228 229 228 224 223 223 220 215 211 201 192 186
89 59 70 84 79 69 54 60 44 48 44 19 1 342 322 312 304 305 314 309 298 295 308 309 309 313 307 307 303 303 304 304 303 303 302 297 295 296 295 298 300 298 300 302 303 304 304 305 304 304 302 300 299 297 295 292 289 286 282 278 275 272 271 275 276 273 260 250 248 245 233 227 227 228 230 230 227 221 236 225 215 215 202 195 189
119 103 104 96 93 97 91 79 68 61 40 11 333 316 310 302 308 311 309 301 305 317 309 317 319 311 308 303 302 304 298 294 293 292 290 291 291 292 293 292 296 298 299 302 305 307 308 308 307 306 305 303 302 300 298 295 292 289 287 282 277 274 270 270 271 272 271 259 248 251 253 239 230 230 229 229 224 217 219 212 219 211 205 200 196
128 139 156 119 108 118 102 88 85 69 36 337 324 332 337 322 308 313 321 328 323 315 321 325 320 309 307 303 306 304 300 299 300 298 292 289 287 286 287 288 286 292 295 298 302 304 306 307 307 306 306 307 305 302 300 299 296 293 291 288 283 278 274 270 269 268 267 267 255 244 245 248 241 233 233 230 225 221 222 220 213 209 207 202 196
118 127 112 106 120 120 106 98 81 71 21 336 4 329 310 308 310 341 330 324 317 318 324 319 309 303 299 295 295 292 296 295 294 293 292 289 288 286 285 287 287 289 294 296 300 302 309 309 308 307 307 308 306 304 303 301 299 296 292 290 288 284 280 276 271 268 267 265 265 254 244 242 241 234 230 229 224 223 222 218 219 223 206 208 198
102 114 107 109 101 91 91 97 93 82 42 2 343 319 309 311 336 335 319 316 311 311 314 307 305 301 295 297 296 293 293 291 289 288 286 285 285 286 288 285 289 292 293 292 295 301 297 295 297 300 304 307 305 302 300 300 300 298 295 292 290 288 285 281 276 271 268 266 264 263 255 249 246 238 228 226 222 214 216 214 209 215 220 212 199
118 107 121 98 111 110 108 95 95 81 44 351 349 325 321 325 335 336 323 315 315 307 307 302 306 305 304 299 294 292 290 291 290 287 284 284 282 287 288 283 283 285 284 287 283 281 280 282 286 298 306 306 305 304 302 298 295 296 298 296 292 289 287 284 281 277 272 268 265 261 257 248 245 251 248 234 224 217 212 216 214 217 217 218 207
121 125 132 136 109 100 95 96 91 84 24 350 345 322 342 327 315 310 317 311 317 306 306 312 310 301 296 294 289 290 291 291 288 284 285 281 284 286 283 279 276 276 278 276 279 277 280 284 291 295 296 298 301 302 302 301 298 294 292 294 296 294 291 287 284 281 278 273 268 266 261 253 246 242 242 244 237 227 219 217 217 219 221 217 206
130 137 111 116 131 133 114 99 93 79 54 2 312 308 308 307 305 306 314 314 303 305 307 307 300 294 290 288 290 289 288 287 282 282 279 280 282 279 276 276 277 273 276 276 276 272 274 274 276 281 283 285 292 301 302 302 302 299 296 293 292 292 293 291 288 285 283 279 274 269 264 259 253 246 240 240 243 240 228 219 219 219 220 219 217
142 132 136 119 113 110 111 116 113 100 68 357 323 312 306 310 328 324 323 298 294 298 296 298 295 290 291 291 291 287 285 278 277 276 276 279 282 277 276 275 272 271 267 269 263 268 267 262 262 264 265 273 285 294 298 300 301 301 299 296 294 293 292 292 292 289 286 283 279 274 269 264 257 250 244 239 239 242 240 229 220 220 219 221 212
143 135 121 118 115 112 101 104 127 121 118 329 315 323 320 327 314 312 309 302 286 283 289 291 289 291 292 287 280 287 286 284 282 278 280 281 279 274 272 271 270 271 274 271 268 269 266 264 265 261 266 272 278 280 284 288 290 295 300 301 297 293 291 289 290 291 290 286 283 279 274 268 263 257 250 243 237 240 242 241 228 220 221 217 208
140 149 159 146 142 141 140 151 151 156 170 213 229 284 305 310 302 296 298 303 301 293 289 310 311 296 273 282 293 282 276 276 272 272 275 275 273 287 286 294 294 296 287 281 283 277 275 280 277 277 275 273 273 280 289 299 307 311 308 304 302 301 300 299 297 292 288 287 286 283 279 272 267 263 255 234 233 236 238 243 244 232 223 219 212
156 157 151 143 141 141 146 153 137 147 180 192 283 281 286 275 262 287 237 272 294 320 312 327 303 310 325 318 303 272 255 257 259 268 298 300 304 296 296 301 299 295 292 302 309 311 310 301 293 290 284 287 294 310 315 307 300 297 297 299 299 300 301 303 303 302 301 298 292 287 282 277 273 268 261 235 234 236 237 240 243 246 239 231 231
153 153 152 155 154 143 150 145 135 133 40 333 276 273 252 265 255 251 304 282 276 296 297 305 287 321 305 292 311 327 324 273 327 12 325 306 299 296 297 295 290 297 307 308 302 295 294 293 291 289 305 320 321 314 305 294 289 287 286 287 292 298 301 300 298 296 292 291 290 287 286 283 278 271 266 258 242 235 234 236 238 242 243 238 221
161 155 152 154 157 160 141 115 117 111 160 255 262 258 260 266 271 271 254 297 304 288 298 327 328 329 330 352 305 306 321 216 335 302 280 280 273 276 276 284 299 300 300 292 286 292 294 296 304 312 309 309 306 299 288 289 295 299 299 299 300 301 299 296 295 292 291 292 293 295 298 297 291 280 270 267 255 237 234 235 235 237 239 235 227
155 159 158 161 155 147 137 136 126 128 118 254 262 248 243 244 256 274 268 251 284 279 290 326 306 284 266 323 327 318 274 314 328 299 194 342 267 282 280 284 279 280 292 294 295 293 296 297 294 292 294 295 289 285 288 289 292 288 292 291 291 287 285 291 291 293 293 294 296 298 299 299 299 298 291 273 265 255 236 233 236 236 235 232 233
159 161 157 153 153 143 135 139 149 178 189 213 229 248 255 253 245 241 258 241 240 282 289 307 287 291 264 219 217 264 311 311 345 305 284 234 270 214 271 267 277 303 299 291 294 293 291 292 297 301 300 292 285 283 287 289 293 298 295 293 289 289 287 288 287 287 289 294 299 300 298 295 295 294 291 294 280 262 259 246 236 238 231 230 231
161 159 161 159 153 150 147 150 155 171 212 217 240 244 247 247 254 252 242 239 274 279 279 290 312 279 270 266 265 275 285 312 303 314 315 318 176 308 286 276 295 293 282 287 300 304 301 297 296 292 287 286 296 304 303 300 297 290 285 282 282 281 278 276 277 279 283 285 285 286 288 290 291 292 290 289 294 292 271 259 250 239 232 227 226
162 167 163 159 154 154 154 155 163 195 208 221 222 232 242 269 261 254 263 242 237 252 269 265 264 281 295 297 297 301 306 296 281 282 298 307 307 280 215 268 295 261 303 305 300 298 300 300 298 299 300 297 298 293 291 287 284 286 289 288 290 288 285 282 279 276 277 278 279 282 282 285 288 291 291 290 289 286 291 289 269 249 237 226 225
165 162 162 159 157 160 155 156 168 200 207 225 231 230 232 242 264 274 264 267 236 240 260 267 274 278 312 297 314 300 307 295 300 298 284 302 292 300 308 285 255 278 295 292 295 298 296 294 293 291 290 289 287 286 287 290 290 287 283 283 282 282 283 284 282 280 276 273 273 275 278 279 283 289 289 288 287 286 284 286 290 278 248 235 229
165 162 158 162 159 154 153 161 178 196 209 223 234 248 255 252 250 250 249 252 247 253 255 263 259 275 275 288 295 304 305 292 273 275 280 247 276 300 307 313 314 300 268 293 292 285 284 286 285 285 285 288 291 293 292 289 287 284 281 283 283 282 282 280 280 279 276 272 269 269 272 274 277 278 283 285 285 285 283 280 283 287 275 248 239
162 168 165 164 162 154 154 166 176 188 200 211 230 232 243 244 237 234 236 232 239 241 255 256 255 257 257 248 241 241 242 264 266 268 272 278 293 285 293 299 296 301 302 286 277 286 285 280 284 282 283 285 284 285 283 282 284 285 287 288 287 283 282 281 278 276 275 275 271 269 267 269 270 272 273 278 282 283 283 283 280 279 280 270 249
160 161 169 163 155 156 158 164 179 191 205 208 219 223 229 232 255 261 265 260 248 246 242 247 247 244 242 234 243 243 250 254 261 261 256 267 274 283 290 302 298 284 287 303 293 276 273 283 275 277 279 280 279 278 281 281 279 280 282 284 284 284 284 283 279 274 273 274 272 267 265 264 262 262 266 272 278 281 282 281 280 278 274 274 268
167 162 167 159 154 155 160 172 186 196 201 201 204 205 219 251 250 255 248 246 241 239 243 246 244 250 252 252 260 257 260 256 266 264 263 276 276 284 283 287 285 297 300 305 296 300 280 270 275 269 274 276 275 271 274 276 280 286 287 286 285 283 283 282 280 279 277 274 272 270 265 261 258 259 264 269 273 278 279 279 279 276 273 271 270
165 171 164 155 153 158 164 172 176 183 190 209 227 232 233 235 239 242 242 241 241 245 248 251 252 254 253 262 250 256 256 255 258 257 263 269 266 266 287 287 281 285 293 301 294 300 289 241 251 278 279 284 286 288 284 287 287 287 288 289 289 287 284 284 284 283 283 283 279 272 265 261 260 259 260 265 267 270 275 277 276 275 273 270 267
162 156 143 143 147 146 155 166 182 192 193 196 195 204 211 223 226 228 238 229 232 239 248 248 256 256 257 251 257 249 249 251 248 254 256 254 259 268 276 291 295 287 287 285 291 278 278 289 278 269 274 278 277 281 287 285 286 288 292 288 287 282 278 279 279 281 281 279 277 275 270 266 262 259 257 260 263 267 268 273 274 273 271 269 266
149 142 144 143 149 155 163 177 185 194 197 193 199 202 215 224 239 241 251 243 242 250 254 257 259 259 259 256 257 254 250 251 250 256 254 254 260 264 265 271 283 293 299 298 290 280 280 281 289 268 269 273 274 284 298 302 302 306 308 303 299 295 298 303 304 303 304 305 304 301 294 283 269 260 257 257 257 260 264 267 271 273 272 270 270
148 144 144 147 155 158 169 178 188 190 188 190 193 202 210 220 233 247 257 256 251 251 256 255 260 265 263 262 258 262 257 254 255 255 254 258 257 257 252 256 261 271 287 294 291 296 294 286 283 293 281 277 286 287 295 298 303 306 305 298 292 290 293 295 295 296 296 296 294 293 291 291 291 287 278 264 256 257 259 259 263 268 268 266 264
149 149 146 152 154 159 162 173 178 185 190 198 201 210 213 229 231 243 243 245 256 260 258 259 265 262 262 263 258 265 264 261 261 257 253 254 257 254 255 253 250 256 265 275 281 284 292 294 274 283 290 277 290 293 290 295 294 295 287 282 283 290 296 299 299 297 294 291 289 286 285 284 280 279 275 276 275 268 265 265 267 269 270 267 263
148 148 152 156 155 161 162 180 186 192 191 196 196 201 214 231 240 245 251 249 255 264 257 259 264 262 267 266 268 267 270 272 268 265 264 262 262 261 257 256 253 253 261 264 275 276 280 289 289 281 284 292 288 291 292 284 281 277 275 283 293 296 299 299 297 296 295 292 290 289 287 285 279 273 273 270 268 267 265 265 265 266 270 271 265
153 149 154 157 160 169 177 178 187 185 189 190 185 202 216 226 234 251 257 252 261 264 275 272 276 274 274 274 274 275 279 279 274 271 268 263 263 264 264 262 261 258 259 263 263 273 280 281 287 290 293 294 292 290 292 290 273 284 295 291 289 290 289 288 288 286 285 287 289 290 288 286 283 281 275 270 268 265 263 263 264 264 265 266 266
152 155 159 163 165 171 174 177 181 188 183 193 191 198 207 220 231 237 249 258 265 268 273 272 270 279 281 282 280 281 289 286 287 289 287 288 289 285 284 281 276 269 262 261 264 271 277 278 281 285 295 305 297 292 287 287 290 285 278 278 280 283 286 285 286 286 284 280 279 280 281 282 281 280 277 272 268 266 264 262 261 261 259 260 262
153 156 159 159 165 170 174 183 185 185 191 190 200 194 211 221 240 229 237 244 254 266 267 271 274 273 280 279 280 285 290 287 291 286 286 286 284 283 279 278 274 275 279 287 283 285 286 290 290 291 291 294 292 294 293 294 291 293 286 283 284 285 284 282 279 278 278 277 275 274 272 272 276 280 281 279 276 275 271 263 260 257 254 254 256
150 155 158 159 165 169 176 183 185 192 195 199 198 198 205 212 230 242 245 243 255 263 267 270 274 277 277 275 279 286 287 286 282 281 282 279 278 275 274 272 274 275 279 281 286 281 282 284 284 289 287 289 283 291 295 288 281 282 285 285 285 284 279 280 281 279 276 275 274 271 269 268 270 271 273 273 266 263 265 272 268 256 251 250 250
151 152 153 159 161 174 182 187 189 193 194 197 199 197 200 209 233 249 249 254 260 262 266 269 272 274 273 277 274 275 276 275 275 274 271 269 270 269 270 267 268 271 269 267 260 270 276 278 277 279 286 290 288 289 286 285 286 290 284 286 282 278 280 280 278 275 271 271 269 268 268 265 264 263 265 265 265 267 265 263 265 262 252 249 247
146 143 150 155 165 176 188 190 197 197 197 197 199 195 198 201 222 239 247 252 256 260 263 266 271 269 268 266 271 272 273 271 271 269 270 267 263 264 264 264 262 271 269 266 266 266 273 274 279 277 282 283 284 283 286 287 285 280 283 280 282 281 280 276 273 272 274 275 272 271 269 264 262 261 261 260 263 262 256 256 261 263 255 246 246
138 148 157 169 176 186 184 193 191 193 189 186 186 198 206 225 234 238 246 251 255 260 262 266 264 263 264 263 265 265 265 266 269 267 265 265 263 259 257 259 257 254 252 258 262 265 266 268 270 277 273 279 282 278 281 281 286 289 286 283 281 278 282 283 278 275 271 267 267 266 267 266 263 259 257 257 257 257 257 252 255 258 254 246 243
149 154 164 164 173 174 185 175 186 183 193 189 197 210 215 216 224 236 249 253 257 256 258 258 257 256 258 261 263 262 261 261 263 265 264 259 260 258 258 261 262 259 265 256 259 257 260 267 266 269 275 273 272 279 278 276 279 278 286 289 288 287 277 274 280 281 272 275 276 277 277 275 271 267 257 249 250 253 254 256 255 253 250 247 241
151 158 164 164 156 149 174 167 190 186 197 209 213 212 216 213 219 233 234 247 253 258 260 262 261 261 258 257 254 254 256 256 256 258 262 269 268 270 264 261 259 261 257 261 255 259 256 261 266 266 266 275 273 271 277 276 278 277 264 279 285 291 296 295 288 288 288 282 282 283 280 275 270 260 257 258 259 258 256 256 256 252 250 248 244
137 140 135 138 149 147 150 166 201 208 205 224 219 219 215 220 209 221 235 246 254 260 262 260 260 263 264 263 263 256 259 265 269 273 272 269 267 267 256 226 239 247 255 256 257 254 257 258 261 264 268 267 268 269 276 271 268 272 280 275 280 281 284 283 281 266 267 278 278 280 278 270 257 247 245 251 254 259 257 252 252 252 250 247 244
128 133 137 137 144 163 179 202 210 223 230 228 234 233 224 198 205 219 237 240 244 249 260 269 269 263 264 264 265 271 279 282 284 284 285 284 281 280 281 280 278 272 260 258 258 254 258 259 258 259 262 257 259 256 262 264 269 271 274 273 276 281 283 279 275 266 266 275 281 281 293 327 312 302 291 272 266 261 262 254 242 241 245 244 240
135 134 139 153 162 175 187 203 214 219 227 233 238 240 241 238 227 221 242 256 259 264 260 259 268 276 275 276 273 269 273 278 279 277 282 284 283 281 283 283 280 277 279 280 277 273 264 259 259 251 254 258 258 253 255 265 262 266 271 273 272 275 277 286 290 294 254 261 306 309 300 293 285 292 288 275 268 263 256 254 256 246 243 243 241
137 135 148 165 169 179 190 202 213 221 232 242 246 249 249 249 251 252 255 255 252 249 270 274 277 278 282 281 278 275 270 268 272 277 281 278 280 284 283 283 282 281 277 274 278 278 276 277 272 264 258 258 259 251 257 259 259 260 262 261 263 264 269 270 275 280 290 333 292 301 295 291 293 290 288 281 276 270 262 260 260 263 261 253 243
133 147 162 165 177 183 193 199 211 222 231 247 254 256 257 258 259 261 260 259 265 258 264 273 279 283 284 281 280 273 264 271 276 270 269 274 276 276 280 281 280 275 275 275 271 269 275 274 275 276 270 274 268 256 240 250 251 260 261 260 260 264 267 275 274 279 281 329 310 294 291 288 288 280 279 278 275 268 266 264 265 268 269 267 259
148 155 162 167 174 184 191 199 213 230 238 247 257 259 260 261 263 267 266 265 261 265 280 285 280 278 275 276 276 275 272 272 272 275 277 276 278 278 275 267 255 263 267 266 268 267 268 270 273 273 273 269 273 278 275 273 272 271 273 265 260 263 264 262 270 271 278 290 281 291 284 278 275 272 267 270 264 263 263 271 272 272 274 274 272
157 161 164 168 178 175 186 195 205 235 241 250 255 258 260 265 269 275 272 283 293 283 276 278 277 274 280 280 277 279 286 282 276 276 285 286 286 289 289 288 281 260 244 245 248 256 258 258 260 263 269 266 265 268 266 260 259 260 258 266 265 262 269 273 271 264 275 268 262 256 260 269 271 262 261 262 268 266 262 271 273 268 265 268 268
142 145 156 163 173 179 181 175 202 233 241 250 258 259 264 268 274 275 279 279 268 266 264 269 272 280 279 277 282 282 281 277 286 291 295 301 301 300 298 294 289 281 270 266 271 272 268 263 258 258 260 260 262 262 261 255 254 255 257 261 264 259 268 268 265 270 259 265 243 256 264 271 269 262 267 262 261 270 271 266 270 266 263 265 266
153 161 165 167 171 172 179 184 202 231 239 251 259 262 261 268 277 268 260 260 266 267 268 268 271 271 274 278 280 287 294 293 302 307 308 308 304 301 294 291 288 284 280 275 271 274 275 274 272 271 272 273 272 271 271 269 266 258 255 257 257 258 259 261 261 263 266 267 238 243 271 276 275 273 269 266 262 271 275 272 267 266 265 265 267
158 159 157 151 167 176 187 191 202 221 232 250 256 258 262 265 272 271 273 269 268 272 273 269 270 273 275 288 300 299 303 307 309 310 311 310 299 297 297 294 293 290 286 284 279 273 274 275 274 274 273 271 271 273 273 272 273 271 260 258 258 259 258 255 265 266 275 265 254 239 265 263 281 274 277 280 280 261 262 261 261 268 276 287 289
140 147 153 160 172 185 192 191 214 227 231 240 252 255 260 267 274 265 263 268 272 276 280 279 276 275 278 292 302 307 309 306 310 312 311 311 306 305 302 298 294 293 296 297 293 287 281 271 266 263 264 265 267 264 265 269 272 273 269 266 262 251 256 260 262 272 273 264 262 233 255 266 258 259 262 276 273 270 234 249 247 274 290 290 291